Track NOAA 20 (JPSS 1) now! 10-day predictions NOAA 20 (JPSS 1) is classified as:
1 43013U 17073A 24326.09878703 .00000228 00000-0 12897-3 0 9990 2 43013 98.7216 261.4681 0002274 101.9574 258.1857 14.19570929363168